THORAD AGENA D DEB, 18785

Orbit data source: Space-Track

THORAD AGENA D DEB, 18785 is space debris in SSO originally from a launch on Wed, 08 Apr 1970 UTC launched from the Air Force Western Test Range (AFWTR). Debris objects in space refer to the collection of defunct objects orbiting the Earth. Examples of debris include non-operational satellites, rocket bodies, and fragments generated from explosions, collisions, or faulty payload assembly.

Loading next visibility...
Identifier
18785, 1970-025PQ
Orbit
SSO
Country
Flag of USUS
Related business
Manufacturer
Unknown
Mission
Spacecraft
Bus & Motor
Unknown
Mass
Unknown
Launch date (UTC)
1970-04-08 (56 years ago)
Launch vehicle
Unknown
Launch site
Air Force Western Test Range (AFWTR)
Object type
Payload
Rocket body
Debris
Shape & HBR
Unknown shape, 0.1 m
Radar Cross Section
Small (<0.1 m²)

Expand to show TLE details & history
Last TLE update: 1 day ago

TLE from 1 day ago
0 THORAD AGENA D DEB
1 18785U 70025PQ  26062.20762588  .00000280  00000-0  43069-3 0  9992
2 18785 100.0313 322.9626 0001079 218.3893 293.6932 13.61213508590367
Epoch: 2026-03-03T04:58Z
TLE epoch observation values (Epoch: 2026-03-03T04:58:58.876Z)
Latitude
27.50607°
Longitude
-87.51523°
Altitude
1,034.222 km
Speed
7.337 km/s
True Right ascension
09h 52m 52s
True Declination
27° 22' 14"
Sunlit
Object was in full shadow at epoch
Visualization orbit readout
Latitude
Unknown
Longitude
Unknown
Altitude
Unknown
Speed
Unknown
Apparent Right ascension
Unknown
Apparent Declination
Unknown
Sunlit
N/A
Visualization observer readout
Local Sidereal Time
15:06:58
Azimuth
Unknown
Elevation
Unknown
Doppler factor
Unknown
Orbital elements
Apogee altitude
1,029.388 km
Perigee altitude
1,027.79 km
Semi-major axis
7,406.726 km
Eccentricity
0.00011
Inclination
100.0313°
RAAN
322.9626°
Arg. of periapsis
218.3893°
True anomaly
293.68188°
Mean anomaly
293.6932°
Eccentric anomaly
293.68754°
Mean motion
3.4049 °/min
Orbital period
105.73 mins
BSTAR
0.00043069
Loading maneuver chart data...
Computing Atmospheric mass density...

Documentation

Showing up to 5 results
|